Location: Bats
(43.6587°N, 0.4584°W)
Time: 19:06:34
(UTC+00:00)

BREEZE-M DEB (TANK) - Pass Details

Date: 12 January 2026
Orbit: 304 x 12633 km, 49.7° (Epoch: 12 February)

Event Time Altitude Azimuth Distance (km) Brightness Sun altitude
Rises 17:57:41 0° 226° (SW) 1,995 6.9 -12.5°
Reaches altitude 10° 17:59:12 10° 219° (SW) 1,232 5.5 -12.8°
Maximum altitude 18:01:26 49° 141° (SE) 545 2.6 -13.2°
Enters shadow 18:03:25 22° 75° (ENE) 1,237 4.0 -13.5°
